Torna al catalogo

CZ-6A DEB

AttivoSSO
NORAD 54492·DEBRIS·🇨🇳 China

Lanciato Nov 11, 2022 da Taiyuan Satellite Launch Center

Loading…

Prossimi Passaggi (prossime 24 ore)

TLE

AggiornatoSource: Space-Track

Epoca: Sep 14, 2026, 20:46 UTC

1 54492U 22151HU  26257.86584769  .00000145  00000-0  13534-3 0  9999
2 54492  98.9740 231.2248 0122226 202.6332 156.9412 13.93395002194768

Traccia CZ-6A DEB in tempo reale con AllMySat

Download on the App Store